NAVSTAR 67 (USA 239)    
1 38833U 12053A   19259.85168124  .00000025  00000-0  00000+0 0  9993
2 38833  53.7425 244.6489 0085476  33.3970 327.1224  2.00559925 50884
DELTA 4 R/B             
1 38834U 12053B   19260.26346512  .00000027  00000-0  00000-0 0  9993
2 38834  53.2829 255.5155 0278644  84.0173  92.1956  1.89445610 48102